Regional Weather Roundup
Issued by NWS

Home | Current Version | Previous Version | Graphics & Text | Print | Product List | Glossary On
Versions: 1 2 3 4 5 6 7 8 9 10 11 12 13 14 15 16 17 18 19 20 21 22 23 24 25 26 27 28 29 30 31 32 33 34 35 36 37 38 39 40 41 42 43 44 45 46 47 48 49 50
000
ASUS43 KOAX 260302
RWRNE

WEATHER ROUNDUP FOR NEBRASKA
NATIONAL WEATHER SERVICE OMAHA NE
1000 PM CDT FRI JUL 25 2014

NOTES: SATELLITE DATA IS BEING USED TO AUGMENT CLOUD COVER ABOVE
       12000 FEET.
       "FAIR" INDICATES FEW OR NO CLOUDS BELOW 12,000 FEET WITH NO
       SIGNIFICANT WEATHER AND/OR OBSTRUCTIONS TO VISIBILITY.

  * THESE STATIONS DO NOT REPORT WEATHER SUCH AS RAIN...SNOW OR FOG.

NEZ001>004-019>022-054>056-260400-
NEBRASKA PANHANDLE

CITY           SKY/WX    TMP DP  RH WIND       PRES   REMARKS
SCOTTSBLUFF    MOCLDY    73  62  68 SE8       29.94F
ALLIANCE       MOCLDY    70  58  65 S13       29.94R
CHADRON        PTCLDY    81  55  40 S21G36    29.83S
KIMBALL        CLOUDY    67  62  83 SW7       30.04R
SIDNEY         CLOUDY    73  57  57 W7        30.01F
$$

NEZ057>060-069>072-079>082-260400-
SOUTHWEST NEBRASKA

CITY           SKY/WX    TMP DP  RH WIND       PRES   REMARKS
NORTH PLATTE   CLOUDY    78  70  76 CALM      29.89R
IMPERIAL       CLOUDY    80  67  64 NW5       29.94R
LEXINGTON      CLOUDY    78  74  87 CALM      29.85S
MCCOOK         MOCLDY    79  68  69 E3        29.87R
OGALLALA       CLOUDY    79  64  60 N6        29.96R
$$

NEZ005>010-023>029-035>040-094-260400-
NORTH CENTRAL NEBRASKA

CITY           SKY/WX    TMP DP  RH WIND       PRES   REMARKS
VALENTINE      CLOUDY    80  59  48 NE8       29.87F
AINSWORTH      CLOUDY    79  67  67 SW5       29.90R
BROKEN BOW     CLOUDY    75  71  87 N5        29.88R
O`NEILL        MOCLDY    80  70  72 E7        29.84R
ORD            MOCLDY    77  71  82 CALM      29.83R
THEDFORD       CLOUDY    80  68  67 S5        29.93R
$$

NEZ041-046>049-061>064-073>077-083>087-260400-
SOUTH CENTRAL NEBRASKA

CITY           SKY/WX    TMP DP  RH WIND       PRES   REMARKS
GRAND ISLAND   MOCLDY    78  73  84 CALM      29.82R
AURORA         PTCLDY    78  76  94 NE3       29.82R
HASTINGS       MOCLDY    79  70  74 CALM      29.83R
HEBRON         CLEAR     78  72  82 CALM      29.79R
HOLDREGE       CLOUDY    76  70  83 CALM      29.85R
KEARNEY *      CLOUDY    75  68  78 N3        29.84R
YORK           CLEAR     77  77 100 N5        29.81R
$$

NEZ011>018-030>034-042>045-260400-
NORTHEAST NEBRASKA

CITY           SKY/WX    TMP DP  RH WIND       PRES   REMARKS
NORFOLK        PTCLDY    81  73  76 NE5       29.81R
ALBION         MOCLDY    78  74  86 CALM      29.83R
BLAIR          CLEAR     80  75  86 N6        29.78R
COLUMBUS *     CLEAR     79  73  83 NW5       29.80R
FREMONT        CLEAR     82  78  86 CALM      29.78R HX  92
WAYNE          PTCLDY    76  74  94 CALM      29.82R
$$

NEZ050>053-065>068-078-088>093-260400-
SOUTHEAST NEBRASKA

CITY           SKY/WX    TMP DP  RH WIND       PRES   REMARKS
LINCOLN        CLEAR     82  75  79 N6        29.78R
OMAHA EPPLEY   MOCLDY    83  75  77 NE5       29.77R HX  90
BEATRICE       CLEAR     81  75  83 CALM      29.78R
FALLS CITY     CLEAR     87  72  60 W7        29.75R HX  93
NEBRASKA CITY  CLEAR     84  76  77 CALM      29.76R HX  92
PLATTSMOUTH    CLEAR     82  77  85 N5        29.76R
$$

NEZ044-045-051>053-067-260400-
OMAHA AREA

CITY           SKY/WX    TMP DP  RH WIND       PRES   REMARKS
OMAHA EPPLEY   MOCLDY    83  75  77 NE5       29.77R HX  90
BLAIR          CLEAR     80  75  86 N6        29.78R
FREMONT        CLEAR     82  78  86 CALM      29.78R HX  92
MILLARD        CLEAR     82  75  78 CALM      29.76R
OFFUTT AFB     PTCLDY    80  80 100 NE3       29.75R HX  90
PLATTSMOUTH    CLEAR     82  77  85 N5        29.76R
WAHOO          FAIR      80  76  87 N5        29.78R
$$


USA.gov is the U.S. government's official web portal to all federal, state and local government web resources and services.